STARLINK-11416 [DTC] (62594 NORAD) Tracking and Keplerian Element Data

This shows tracking and keplerian element data for the satellite.

Feedback or suggestion? Click here.




ElementValue
Catalog62594
NameSTARLINK-11416 [DTC]
Epoch Orbit437
Epoch Day35.16668981
Epoch Year2025
RAAN8.6863
Inclination43.0036
Eccentricity0.0001032
Argument of Perigee292.9233
Mean Anonmoly41.2851
Mean Motion15.92019779
Decay Rate-0.00234794
L11 62594U 25008H 25035.16668981 -.00234794 26223-4 -67303-3 0 9993
L22 62594 43.0036 8.6863 0001032 292.9233 41.2851 15.92019779 4376



Live tracking and technical data element details for STARLINK-11416 [DTC] (NORAD 62594). STARLINK-11416 [DTC] can be tracked NOW for your location showing map with azimuth and elevation plus other details from your city location.







IsCatalogInMostPopularTable: catalog: 62594, numindb: 13
Update: records affected: 1



GetName: 62594 STARLINK-11416 [DTC]

Hit Count: updated at: Mon, 19 May 2025 03:03:00 GMT